SL-16 DEB

Satellite information

Favourite Embed

Satellite Type and Status

DEBRISIN ORBIT

Key statistics

Satellite SL-16 DEB at a glance.

Uptime

11792

Days in orbit

Revolutions

≈ 13.9

Per day

Orbit

LEO

Low Earth Orbit

Inclination

71.0

Latest

Satellite identification and parameters

Extended collection of information and parameters for SL-16 DEB.

Object identification

Identified? True

Debris? True

Object name: SL-16 DEB

International designator: 1993-016CD

Object number (NORAD): 39903

Object ID (CCSDS): 39903

Country: COMMONWEALTH OF INDEPENDENT STATES (CIS)

Current information (Y/N): Y

RCS size: SMALL

Orbital parameters

Period: 103.783 minutes

Inclination: 70.9893 deg

SMA: 7315.505 km

Apoapsis: 1036.749 km

Periapsis: 837.991 km

RAAN: 111.3866 deg

Eccentricy: 0.0135847

Argument of periapsis: 337.8752 deg

Mean anomaly: 40.6911 deg

Mean motion: 13.87510676 rev/day

Mean motion (dot): 0.00000208 rev/day2

B* drag term: 0.00019901 1/REarth

Two-line elements (TLE)

Creation date: July 3, 2025, 5:26 p.m.

Reference frame: TEME

Reference center: EARTH

Epoch: July 3, 2025, 1:42 a.m. UTC

TLE line 0: 0 SL-16 DEB

TLE line 1: 1 39903U 93016CD 25184.07118078 .00000208 00000-0 19901-3 0 9998

TLE line 2: 2 39903 70.9893 111.3866 0135847 337.8752 40.6911 13.87510676561985

Live tracking on map

Real-time ground track for satellite SL-16 DEB.

In-orbit conjunctions

A list of the most updated potential collisions computed for object SL-16 DEB.

Target Orbit TCA Probability of collision Miss distance Type
COSMOS 1295 LEO 2025-04-09 06:40:57 0.0006810708 133.0 (m) PAYLOAD
COSMOS 2341 LEO 2025-03-05 03:49:23 0.0004573176 246.0 (m) PAYLOAD

Associated space launch

Second generation ELING satellite

SL-16 DEB was lifted into orbit during the mission ‘Zenit-2 | Tselina-2 13’, on board a Zenit-2 space rocket.

The launch took place on March 26, 1993, 2:21 a.m. from 45/1.

For more information about the launch, click the button.

Launch to space Zenit-2 | Tselina-2 13
Zenit-2 | Tselina-2 13

Agency: N/A

Status: Launch Successful

Launch date: March 26, 1993, 2:21 a.m. UTC

Rocket: Zenit-2

Launch pad: 45/1

Location: Baikonur Cosmodrome, Republic of Kazakhstan

...

Latest news about this satellite

There are no fresh news available about this satellite. Check back as we update our databases every day.


Newsletter sign-up

Weekly statistics, charts and insights to help you stay on top of the space industry.